| time (UTC) | temp F | wind direction | speed MPH | gust MPH | rain 1hr in | rain 24hr in | rain mn in | humidity % | barometer mb |
| 20260901014606 | 65 | 267 | 0.0 | 0.0 | 0.00 | 0.01 | 0.01 | 1 | 1018.1 |
| 20260901011614 | 65 | 268 | 0.0 | 0.0 | 0.00 | 0.01 | 0.01 | 2 | 1018.3 |
| 20260901010040 | 65 | 265 | 0.0 | 0.0 | 0.00 | 0.01 | 0.01 | 1 | 1018.4 |
| 20260901004630 | 65 | 265 | 0.0 | 0.0 | 0.00 | 0.04 | 0.01 | 1 | 1018.3 |
| 20260901003051 | 66 | 265 | 0.0 | 0.0 | 0.00 | 0.04 | 0.01 | 6 | 1018.2 |
| 20260901001513 | 66 | 265 | 0.0 | 0.0 | 0.00 | 0.04 | 0.01 | 16 | 1018.0 |
| 20260901000107 | 66 | 265 | 0.0 | 0.0 | 0.00 | 0.04 | 0.01 | 25 | 1017.9 |
| 20260831234525 | 67 | 265 | 0.0 | 0.0 | 0.00 | 0.04 | 0.01 | 32 | 1017.9 |
| 20260831233120 | 67 | 265 | 0.0 | 0.0 | 0.00 | 0.04 | 0.01 | 37 | 1017.9 |
| 20260831231541 | 67 | 265 | 0.0 | 0.0 | 0.00 | 0.04 | 0.01 | 43 | 1018.1 |
| 20260831230129 | 69 | 265 | 0.0 | 0.0 | 0.00 | 0.04 | 0.01 | 45 | 1018.1 |
| 20260831224614 | 70 | 264 | 0.0 | 0.0 | 0.00 | 0.04 | 0.01 | 57 | 1018.1 |
| 20260831223041 | 70 | 264 | 0.0 | 0.0 | 0.00 | 0.04 | 0.01 | 59 | 1018.2 |
| 20260831221631 | 70 | 264 | 0.0 | 0.0 | 0.00 | 0.04 | 0.01 | 59 | 1018.4 |
| 20260831220053 | 71 | 264 | 0.0 | 0.0 | 0.00 | 0.04 | 0.01 | 61 | 1018.2 |
| 20260831214633 | 71 | 264 | 0.0 | 0.0 | 0.00 | 0.04 | 0.01 | 62 | 1018.2 |
| 20260831213100 | 71 | 264 | 0.0 | 0.0 | 0.00 | 0.04 | 0.01 | 63 | 1018.2 |
| 20260831211513 | 71 | 264 | 0.0 | 0.0 | 0.00 | 0.04 | 0.01 | 64 | 1018.2 |
| 20260831210111 | 71 | 264 | 0.0 | 0.0 | 0.00 | 0.04 | 0.01 | 64 | 1018.1 |
| 20260831204526 | 71 | 264 | 0.0 | 0.0 | 0.00 | 0.04 | 0.01 | 63 | 1018.2 |
| 20260831203116 | 70 | 264 | 0.0 | 0.0 | 0.00 | 0.04 | 0.01 | 64 | 1018.3 |
| 20260831201534 | 70 | 264 | 0.0 | 0.0 | 0.00 | 0.04 | 0.01 | 63 | 1018.2 |
| 20260831194547 | 70 | 264 | 0.0 | 0.0 | 0.00 | 0.04 | 0.01 | 65 | 1018.5 |
| 20260831193021 | 72 | 264 | 0.0 | 0.0 | 0.00 | 0.04 | 0.01 | 66 | 1018.6 |
| 20260831191602 | 73 | 264 | 0.0 | 0.0 | 0.00 | 0.04 | 0.01 | 66 | 1018.9 |
| 20260831190026 | 73 | 264 | 0.0 | 0.0 | 0.00 | 0.04 | 0.01 | 66 | 1018.6 |
| 20260831184614 | 73 | 264 | 0.0 | 0.0 | 0.00 | 0.04 | 0.01 | 64 | 1019.0 |
| 20260831183038 | 73 | 40 | 0.0 | 0.0 | 0.00 | 0.04 | 0.01 | 66 | 1019.1 |
| 20260831181631 | 73 | 40 | 0.0 | 0.0 | 0.00 | 0.04 | 0.01 | 66 | 1019.1 |
| 20260831180042 | 74 | 40 | 0.0 | 0.0 | 0.00 | 0.04 | 0.01 | 64 | 1019.0 |
| 20260831174631 | 74 | 40 | 0.0 | 0.0 | 0.00 | 0.04 | 0.01 | 63 | 1019.1 |
| 20260831173049 | 74 | 40 | 0.0 | 0.0 | 0.00 | 0.04 | 0.01 | 64 | 1019.4 |
| 20260831171511 | 76 | 40 | 0.0 | 0.0 | 0.00 | 0.04 | 0.01 | 63 | 1019.5 |
| 20260831170106 | 75 | 40 | 0.0 | 0.0 | 0.00 | 0.04 | 0.01 | 63 | 1019.7 |
| 20260831163114 | 76 | 42 | 0.0 | 0.0 | 0.00 | 0.04 | 0.01 | 60 | 1019.9 |
| 20260831161554 | 74 | 42 | 0.0 | 0.0 | 0.00 | 0.04 | 0.01 | 61 | 1020.1 |
| 20260831160127 | 72 | 42 | 0.0 | 0.0 | 0.00 | 0.04 | 0.01 | 65 | 1020.1 |
| 20260831154602 | 72 | 69 | 0.0 | 0.0 | 0.00 | 0.04 | 0.01 | 65 | 1020.2 |
| 20260831153004 | 70 | 73 | 0.0 | 0.0 | 0.00 | 0.04 | 0.01 | 65 | 1020.2 |
| 20260831151600 | 69 | 73 | 0.0 | 0.0 | 0.00 | 0.04 | 0.01 | 65 | 1020.2 |
| 20260831150013 | 69 | 73 | 0.0 | 0.0 | 0.00 | 0.04 | 0.01 | 66 | 1020.2 |
| 20260831144604 | 70 | 73 | 0.0 | 0.0 | 0.01 | 0.04 | 0.01 | 65 | 1020.3 |
| 20260831143018 | 70 | 73 | 0.0 | 0.0 | 0.01 | 0.04 | 0.01 | 65 | 1020.2 |
| 20260831141615 | 69 | 73 | 0.0 | 0.0 | 0.01 | 0.04 | 0.01 | 65 | 1020.1 |
| 20260831140035 | 69 | 73 | 0.0 | 0.0 | 0.01 | 0.04 | 0.01 | 63 | 1020.2 |
| 20260831134626 | 68 | 73 | 0.0 | 0.0 | 0.00 | 0.03 | 0.00 | 62 | 1020.2 |
| 20260831131631 | 66 | 73 | 0.0 | 0.0 | 0.00 | 0.03 | 0.00 | 44 | 1020.1 |
| 20260831130100 | 65 | 73 | 0.0 | 0.0 | 0.00 | 0.03 | 0.00 | 18 | 1020.3 |
| 20260831124514 | 64 | 73 | 0.0 | 0.0 | 0.00 | 0.03 | 0.00 | 1 | 1020.4 |
| 20260831123106 | 62 | 73 | 0.0 | 0.0 | 0.00 | 0.03 | 0.00 | 1 | 1020.4 |
| 20260831121530 | 61 | 335 | 0.0 | 0.0 | 0.00 | 0.03 | 0.00 | 1 | 1020.4 |
| 20260831120123 | 61 | 335 | 0.0 | 0.0 | 0.00 | 0.03 | 0.00 | 1 | 1020.4 |
| 20260831114541 | 60 | 335 | 0.0 | 0.0 | 0.00 | 0.03 | 0.00 | 1 | 1020.4 |
| 20260831113126 | 60 | 360 | 0.0 | 0.0 | 0.00 | 0.03 | 0.00 | 1 | 1020.0 |
| 20260831111553 | 59 | 335 | 0.0 | 0.0 | 0.00 | 0.03 | 0.00 | 1 | 1019.8 |
| 20260831110006 | 59 | 335 | 0.0 | 0.0 | 0.00 | 0.03 | 0.00 | 1 | 1019.7 |
| 20260831104552 | 59 | 335 | 0.0 | 0.0 | 0.00 | 0.03 | 0.00 | 1 | 1019.5 |
| 20260831103018 | 59 | 334 | 0.0 | 0.0 | 0.00 | 0.03 | 0.00 | 1 | 1019.3 |
| 20260831100017 | 59 | 334 | 0.0 | 0.0 | 0.00 | 0.03 | 0.00 | 1 | 1019.1 |
| 20260831094606 | 59 | 360 | 0.0 | 0.0 | 0.00 | 0.03 | 0.00 | 1 | 1019.3 |
| 20260831093043 | 59 | 334 | 0.0 | 0.0 | 0.00 | 0.03 | 0.00 | 1 | 1019.1 |
| 20260831091620 | 59 | 334 | 0.0 | 0.0 | 0.00 | 0.03 | 0.00 | 1 | 1019.2 |
| 20260831090041 | 59 | 334 | 0.0 | 0.0 | 0.00 | 0.03 | 0.00 | 1 | 1019.2 |
| 20260831084628 | 60 | 334 | 0.0 | 0.0 | 0.00 | 0.03 | 0.00 | 1 | 1019.0 |
| 20260831083102 | 60 | 334 | 0.0 | 1.0 | 0.00 | 0.03 | 0.00 | 1 | 1019.1 |
| 20260831081510 | 60 | 334 | 0.0 | 0.0 | 0.00 | 0.03 | 0.00 | 1 | 1018.9 |
| 20260831080128 | 60 | 334 | 0.0 | 0.0 | 0.00 | 0.03 | 0.00 | 1 | 1018.9 |
| 20260831074520 | 60 | 334 | 0.0 | 1.0 | 0.00 | 0.03 | 0.00 | 1 | 1018.8 |
| 20260831073106 | 61 | 334 | 0.0 | 1.0 | 0.00 | 0.03 | 0.00 | 1 | 1018.8 |
| 20260831071542 | 61 | 334 | 0.0 | 1.0 | 0.00 | 0.03 | 0.00 | 1 | 1018.8 |
| 20260831064545 | 61 | 59 | 0.0 | 1.0 | 0.00 | 0.03 | 0.00 | 1 | 1018.8 |
| 20260831063127 | 61 | 60 | 1.0 | 3.0 | 0.00 | 0.03 | 0.00 | 1 | 1018.9 |
| 20260831061548 | 61 | 257 | 0.0 | 1.0 | 0.00 | 0.03 | 0.00 | 1 | 1018.7 |
| 20260831060004 | 61 | 246 | 0.0 | 2.0 | 0.00 | 0.03 | 0.00 | 1 | 1018.9 |
| 20260831054601 | 61 | 241 | 0.0 | 2.0 | 0.00 | 0.03 | 0.00 | 1 | 1018.7 |
| 20260831053010 | 62 | 235 | 0.0 | 3.0 | 0.00 | 0.03 | 0.00 | 1 | 1018.6 |
| 20260831051603 | 62 | 298 | 0.0 | 2.0 | 0.00 | 0.03 | 0.00 | 1 | 1018.7 |
| 20260831050021 | 62 | 309 | 0.0 | 2.0 | 0.00 | 0.03 | 0.00 | 1 | 1018.2 |
| 20260831044646 | 62 | 309 | 0.0 | 3.0 | 0.00 | 0.03 | 0.00 | 1 | 1018.5 |
| 20260831043035 | 62 | 310 | 0.0 | 1.0 | 0.00 | 0.03 | 0.00 | 1 | 1018.7 |
| 20260831041634 | 62 | 310 | 0.0 | 4.0 | 0.00 | 0.03 | 0.00 | 1 | 1018.4 |
| 20260831040052 | 62 | 261 | 0.0 | 1.0 | 0.00 | 0.03 | 0.00 | 1 | 1018.5 |
| 20260831033131 | 63 | 259 | 0.0 | 0.0 | 0.00 | 0.03 | 0.03 | 1 | 1018.7 |
| 20260831031552 | 63 | 327 | 0.0 | 1.0 | 0.00 | 0.03 | 0.03 | 1 | 1018.6 |
| 20260831030007 | 63 | 327 | 0.0 | 2.0 | 0.00 | 0.03 | 0.03 | 1 | 1018.5 |
| 20260831024559 | 63 | 261 | 0.0 | 1.0 | 0.00 | 0.03 | 0.03 | 1 | 1018.7 |
| 20260831023016 | 63 | 261 | 0.0 | 2.0 | 0.00 | 0.03 | 0.03 | 1 | 1018.7 |
| 20260831021609 | 63 | 261 | 0.0 | 2.0 | 0.00 | 0.03 | 0.03 | 1 | 1018.8 |
| 20260831020029 | 64 | 261 | 0.0 | 0.0 | 0.00 | 0.03 | 0.03 | 1 | 1018.6 |